Location: Easter Hill Village
(37.9235°N, 122.3444°W)
Time: 13:22:03
(UTC+00:00)

Cosmos 44 - Pass Details

Date: 16 September 2019
Orbit: 591 x 771 km, 65.1° (Epoch: 14 October)

Event Time Altitude Azimuth Distance (km) Brightness Sun altitude
Exits shadow 12:57:28 15° 245° (WSW) 1,898 4.9 -11.4°
Maximum altitude 13:01:10 36° 306° (NW) 1,118 4.0 -10.7°
Drops below altitude 10° 13:05:39 10° 13° (NNE) 2,128 6.1 -9.9°
Sets 13:08:05 0° 23° (NNE) 3,014 7.1 -9.4°
